Regional Weather Roundup
Issued by NWS Pendleton, OR

Home | Current Version | Previous Version | Text Only | Print | Product List | Glossary On
Versions: 1 2 3 4 5 6 7 8 9 10 11 12 13 14 15 16 17 18 19 20 21 22 23 24 25 26 27 28 29 30 31 32 33 34 35 36 37 38 39 40 41 42 43 44 45 46 47 48 49 50
000
ASUS46 KPDT 290910
RWRPDT
PENDLETON REGIONAL WEATHER ROUNDUP
NATIONAL WEATHER SERVICE PENDLETON OREGON
200 AM PDT THU JUN 29 2017

NOTE: FAIR INDICATES FEW OR NO CLOUDS BELOW 12,000 FEET WITH NO
SIGNIFICANT WEATHER AND/OR OBSTRUCTIONS TO VISIBILITY.

# INDICATES UNOFFICIAL STATION AND DATA

WAZ520-291010-
EAST SLOPES OF WASHINGTON CASCADES

CITY            SKY/WX      TMP DP  RH  WIND    PRES   REMARKS
#BULLFROG       N/A         56  45  66  W3      N/A
#CLE ELUM HS    N/A         55  46  72  W1      29.99R
#CLE ELUM LAKE  N/A         50  45  83  CALM    30.13R
#EASTON DOT     N/A         52  46  80  CALM    N/A
#ELK HTS DOT    N/A         53  53  100 N1      N/A
#GLENWOOD       N/A         43  41  93  CALM    29.99R
#NELSON 3SW     N/A         47  41  79  CALM    30.17R
#NILE           N/A         49  44  83  CALM    29.28R
#TEANAWAY 4NE   N/A         48  44  86  CALM    N/A
#TROUT LAKE 1NE N/A         49  44  83  CALM    29.97R
#TROUT LAKE 1E  N/A         48  43  83  CALM    30.05R
$$

WAZ521-291010-
SIMCOE HIGHLANDS

CITY            SKY/WX      TMP DP  RH  WIND    PRES   REMARKS
#BICKLETON HS   N/A         56  43  62  NW5     29.96R
#CENTERVILLE 1SWN/A         56  46  69  CALM    29.93R
#GOLDENDALE 1NE N/A         49  35  58  CALM    N/A
#GOLDENDALE 4W  N/A         52  21  29  NE2     30.06R
#GOODNOE HILLS  N/A         58  47  67  NW5     N/A
#LYLE 6NE       N/A         56  49  77  S5      29.95R
#PITT 4SE       N/A         51  46  83  W2      30.01R
$$

WAZ026-291010-
KITTITAS VALLEY

CITY            SKY/WX      TMP DP  RH  WIND    PRES   REMARKS
ELLENSBURG AP   CLEAR       58  46  64  NW17G25 30.01R
#ELLENSBURG CWU N/A         57  46  67  NW7     29.89R
#ELLENSBURG 3NE N/A         55  46  72  N8      28.09R
#KITTITAS 3S    N/A         54  45  71  CALM    29.94R
#MANASTASH RDG  N/A         53  53  100 N13     N/A
#ROCKY CYN DOT  N/A         55  47  74  W9      N/A
#RYEGRASS DOT   N/A         52  45  77  SW9     N/A
$$

WAZ027-291010-
YAKIMA VALLEY

CITY            SKY/WX      TMP DP  RH  WIND    PRES   REMARKS
SUNNYSIDE AP    CLEAR       59  45  60  CALM    29.95R
YAKIMA AIRPORT  CLEAR       65  44  46  N10     29.99R
YAKIMA-VAGABOND CLEAR       58  43  57  E9      29.98R
#DONALD 2NE     N/A         61  20  20  CALM    28.83R
#GRANDVIEW      N/A         59  43  55  CALM    29.94R
#MABTON         N/A         62  45  54  CALM    29.95R
#MOXEE 2E       N/A         61  N/A N/A NW1     30.01R
#NACHES 2SW     N/A         58  45  62  W13     30.00R
#OUTLOOK DOT    N/A         63  44  50  CALM    29.92R
#PARKER DOT     N/A         N/A N/A N/A N1      29.96S
#TERRACE HTS    N/A         61  44  53  CALM    29.90R
#TOPPENISH      N/A         64  44  48  CALM    29.86R
#I82 S UMTANUM RN/A         57  42  57  N13     N/A
#UNION GAP DOT  N/A         63  42  46  N7      30.00
#W YAKIMA       N/A         60  44  55  N2      29.94R
#WHITE SWAN 5E  N/A         60  45  58  CALM    29.94R
#WILEY CITY 3W  N/A         53  40  61  CALM    29.96R
#ZILLAH DOT     N/A         65  43  45  NW6     N/A
$$

WAZ028-291010-
LOWER COLUMBIA BASIN...WASHINGTON

CITY            SKY/WX      TMP DP  RH  WIND    PRES   REMARKS
HANFORD         MOCLEAR     64  45  50  NW9     29.97R
PASCO           CLEAR       61  52  72  N8      29.94R
PROSSER AWOS    N/A         61  43  51  SW8     29.99R
RICHLAND AWOS   CLEAR       64  51  63  N6      29.95R
#BENTON CITY    N/A         67  49  52  CALM    29.83R
#CONNELL 5N     N/A         62  50  65  CALM    29.92R
#CONNELL 5NW    N/A         59  52  78  CALM    29.87R
#ELTOPIA 6NW    N/A         62  51  67  CALM    28.92S
#KAHLOTUS       N/A         66  49  54  SW2     29.90R
#KENNEWICK 3S   N/A         65  52  63  CALM    29.91R
#PATERSON       N/A         65  51  60  NE2     29.91R
#PROSSER DOT    N/A         64  42  45  W5      29.96R
#SAGEMOOR 2W    N/A         62  52  70  NW2     29.79R
#TOUCHET 2S     N/A         62  47  58  SW9     29.89R
#WEST PASCO     N/A         66  51  58  N5      29.91R
$$

WAZ029-291010-
FOOTHILLS OF THE BLUES...WASHINGTON

CITY            SKY/WX      TMP DP  RH  WIND    PRES   REMARKS
WALLA WALLA AP  PTCLDY      64  45  50  S7      29.98R
#CLYDE 6NW      N/A         61  48  62  S1      29.90R
#DAYTON SCHOOL  N/A         60  42  51  CALM    29.98S
#DELANEY DOT    N/A         65  46  50  SE8     29.94
#LOWDEN 2SE     N/A         62  48  60  CALM    29.92R
#PLEASANT VIEW 1N/A         57  47  69  S5      29.92R
#PRESCOTT       N/A         60  49  67  CALM    29.91R
#WHITMAN COLLEGEN/A         63  47  56  CALM    29.97R
#WAITSBURG 5S   N/A         56  46  69  SE2     30.01R
#WAITSBURG 6SSE N/A         56  46  69  E3      29.94R
#WAITSBURG 8N   N/A         56  N/A N/A S6      29.93R
#WALLA WALLA 5E N/A         60  48  64  SW6     N/A
#WHITMAN MISSIONN/A         60  49  67  CALM    29.94R
$$

WAZ030-291010-
BLUE MOUNTAINS...WASHINGTON

CITY            SKY/WX      TMP DP  RH  WIND    PRES   REMARKS
#DIXIE 5SE      N/A         57  44  62  S3      29.93R
$$

ORZ009-041-WAZ024-291010-
COLUMBIA RIVER GORGE

CITY            SKY/WX      TMP DP  RH  WIND    PRES   REMARKS
HOOD RIVER AP   CLEAR       59  48  67  NW8     30.02R
THE DALLES AP   CLEAR       64  51  63  NW18G28 29.98R
#ARLINGTON AIRPON/A         60  47  62  W12     29.96R
#CELILO DOT     N/A         66  46  48  SW7     N/A
#LYLE           N/A         64  52  65  W7      30.00R
#MARYHILL       N/A         62  46  56  N13     29.86R
#RUFUS DOT      N/A         66  N/A N/A W12     N/A
#SMITHVILLE     N/A         63  50  62  W14     29.99R

$$

ORZ510-291010-
NORTH CENTRAL OREGON

CITY            SKY/WX      TMP DP  RH  WIND    PRES   REMARKS
#ANTELOPE       N/A         45  36  70  CALM    29.84R
#CHENOWITH 1W   N/A         51  35  54  NW14    N/A
#COW CYN RST AREN/A         52  38  59  SE1     N/A
#DUFUR          N/A         45  40  82  W1      29.95R
#DUFUR 9E       N/A         56  45  66  CALM    30.01R
#GRASS VALLEY 1SN/A         50  41  71  CALM    30.05R
#KENT DOT       N/A         49  36  61  W8      N/A
#MAUPIN SCHOOL  N/A         60  47  62  SW1     30.05R
#MORO SCHOOL    N/A         56  50  80  W5      30.09S
#SHANIKO 5WSW   N/A         52  34  50  N3      N/A
#SHANIKO 4NW    N/A         54  34  47  W2      30.04S
#TYGH VALLEY 2NEN/A         53  43  69  CALM    29.97R
#WAPANITIA AIRPON/A         52  44  74  W1      29.97R
#WASCO DOT      N/A         57  48  72  SW1     N/A
#WASCO 5NE      N/A         55  47  74  W6      29.95R
$$

ORZ511-291010-
CENTRAL OREGON

CITY            SKY/WX      TMP DP  RH  WIND    PRES   REMARKS
BEND AIRPORT    CLEAR       48  36  63  S3      30.08S
MADRAS AIRPORT  CLEAR       45  36  70  SE5     30.07R
PRINEVILLE AP   CLEAR       43  34  70  SW5     30.07S
REDMOND AIRPORT CLEAR       45  35  68  CALM    30.06S
#ASHWOOD SCHOOL N/A         50  35  56  CALM    30.01R
#BEND 1SW       N/A         46  36  68  CALM    N/A
#BEND-AWBREY    N/A         52  30  43  E1      29.94S
#BEND-KIM LN    N/A         46  31  56  SW2     29.91R
#CULVER         N/A         52  37  56  CALM    29.88S
#CULVER 8W      N/A         48  38  68  CALM    30.04R
#LAKE BILLY CHINN/A         53  N/A N/A CALM    30.03R
#MADRAS 4S      N/A         46   8  21  S5      N/A
#POWELL BUTTE   N/A         53  40  61  CALM    30.02S
#PRINEVILLE     N/A         47  36  65  CALM    30.04R
#PRINEVILLE 3N  N/A         46  37  71  E3      30.04R
#WARM SPRINGS   N/A         54  42  64  CALM    29.85R

$$


ORZ509-291010-
EAST SLOPES OF OREGON CASCADES

CITY            SKY/WX      TMP DP  RH  WIND    PRES   REMARKS
SISTERS AWOS    N/A         50  37  61  CALM    30.03S
#BLUE BOX PASS  N/A         45  N/A N/A SE1     N/A
#CAMP SHERMAN   N/A         47  39  74  CALM    30.01R
#LA PINE 4NW    N/A         41  35  79  CALM    29.99R
#LAVA BUTTE DOT N/A         43  33  67  SW6     N/A
#SISTERS ODOT   N/A         33  22  63  S1      N/A
#SISTERS 3N     N/A         46  34  63  CALM    30.06S
#SUNRIVER       N/A         42  34  73  CALM    30.12R
#TUMALO 3W      N/A         54  27  35  W3      29.82S
#WANOGA BUTTE D N/A         49  29  46  N13     N/A    WCI 44

$$

ORZ044-291010-
LOWER COLUMBIA BASIN...OREGON

CITY            SKY/WX      TMP DP  RH  WIND    PRES   REMARKS
HERMISTON       CLEAR       63  46  54  SW13    29.94R
#BOARDMAN SCHOOLN/A         62  49  62  SW7     29.93R
#BOARDMAN 8SW   N/A         61  49  65  SW8     29.94R
#ECHO 8SW       N/A         62  42  48  SW8     29.96R
#I-84 EX 198 DOTN/A         62  43  50  E12     N/A
#IONE SCHOOL    N/A         61  43  51  SW3     29.96R
#UMATILLA       N/A         62  46  56  SW8     29.84R
$$

ORZ507-291010-
NORTHERN FOOTHILLS OF THE BLUES

CITY            SKY/WX      TMP DP  RH  WIND    PRES   REMARKS
PENDLETON AIRPT CLEAR       55  44  66  NE5     29.97R
#ADAMS 3WNW     N/A         53  45  74  CALM    29.93R
#ATHENA         N/A         53  45  74  CALM    29.95R
#CAYUSE         N/A         57  45  64  NE3     29.92R
#HELIX SCHOOL   N/A         53  45  74  CALM    29.91R
#HELIX 3N       N/A         55  43  64  SW10    29.94S
#HOLDMAN 5SE    N/A         56  43  62  CALM    29.97R
#HOLDMAN 6E     N/A         56  44  64  S2      29.73R
#M-F GROVE ELEM N/A         60  43  53  CALM    29.93R
#M-FREEWATER 5SEN/A         58  46  64  CALM    29.96R
#PENDLETON DNTN N/A         59  40  49  CALM    29.95S
#PDT AQUATIC CTRN/A         58  41  53  CALM    29.96S
#PDT SUNRIDGE   N/A         54  44  69  NE2     29.99R
#PILOT ROCK 1S  N/A         59  36  42  CALM    29.99R
#PILOT ROCK     N/A         59  38  45  CALM    30.00R
#TUTUILLA       N/A         54  41  61  CALM    30.02R
#UMAPINE 2E     N/A         63  48  58  NE3     29.93R
#WESTON SCHOOL  N/A         55  42  61  CALM    29.91R

$$

ORZ508-291010-
SOUTHERN FOOTHILLS OF THE BLUES

CITY            SKY/WX      TMP DP  RH  WIND    PRES   REMARKS
LEXINGTON       CLEAR       55  37  51  SE5     30.03R
#AJAX           N/A         57  37  47  S6      30.16S
#CONDON 5W      N/A         51  38  61  NW7     30.02R
#HEPPNER EOC    N/A         53  35  50  E2      29.88S
#HEPPNER 4NE    N/A         54  37  52  SW5     29.93R
#LEXINGTON 2SE  N/A         53  38  57  CALM    29.98R
#MIKKALO        N/A         57  41  55  W2      30.12R
#OLEX 4N        N/A         59  47  64  SW9     29.97R
#RUGGS 5NE      N/A         51  31  46  SW3     30.20S
#RUGGS 2SW      N/A         55  36  49  W3      29.95R

$$

ORZ502-503-291010-
BLUE MOUNTAINS

CITY            SKY/WX      TMP DP  RH  WIND    PRES   REMARKS
MEACHAM         CLEAR       44  36  73  CALM    30.04R
#BATTLE MTN DOT N/A         50  35  56  CALM    N/A
#CUTSFORTH PARK N/A          0  -78  1  CALM    29.83R
#GRANITE        N/A         37  27  67  CALM    29.74R
#GREENHORN 9SW  N/A         40  36  85  CALM    30.06R
#HARDMAN 10S    N/A         48  34  58  W1      30.03R
#HEPPNER 15SE   N/A         46  36  68  CALM    29.91S
#LADD CYN SMT   N/A         51  33  50  CALM    N/A
#LADD CREEK ODOTN/A         50  37  61  W3      N/A
#LONG CREEK HS  N/A         46  35  65  CALM    N/A
#N POWDER DOT   N/A         47  38  71  N3      N/A
#PIKES PEAK     N/A         56  42  59  N12     27.99S
#SUMMERVILLE 5NWN/A         52  40  63  CALM    30.01R
#TOLLGATE       N/A         47  40  76  SW1     29.91S
#TROY SCHOOL    N/A         56  47  72  CALM    29.76R
#WESTON 4E      N/A         54  42  64  CALM    29.88R
$$

ORZ505-291010-
JOHN DAY BASIN

CITY            SKY/WX      TMP DP  RH  WIND    PRES   REMARKS
JOHN DAY        CLEAR       55  33  43  CALM    30.05R
#JOHN DAY KJDY  N/A         54  N/A N/A CALM    30.23R
#ANTELOPE 9ESE  N/A         60  37  42  SW1     N/A
#DAYVILLE SCHOOLN/A         57  30  35  CALM    29.99R
#MITCHELL       N/A         49  35  58  E3      30.20R
#MITCHELL 8NW   N/A         56  29  35  CALM    29.94R
#MONUMENT HS    N/A         54  34  47  CALM    29.96R
#MT. VERNON 5SE N/A         51  34  52  CALM    30.01R
#SPRAY SCHOOL   N/A         52  N/A N/A CALM    N/A
$$

ORZ506-291010-
OCHOCO AND JOHN DAY HIGHLANDS

CITY            SKY/WX      TMP DP  RH  WIND    PRES   REMARKS
#HORSE RIDGE DO N/A         36  25  64  CALM    N/A
#PAULINA ODOT   N/A         53  26  35  SW6     N/A
#PINE MTN OBS   N/A         45  30  55  N8      N/A
#PRAIRIE CITY   N/A         46  38  73  CALM    30.17R
#SENECA         N/A         47  N/A N/A CALM    N/A
#SENECA 9NW     N/A         41  30  65  CALM    29.90R
$$

ORZ049-291010-
GRANDE RONDE VALLEY

CITY            SKY/WX      TMP DP  RH  WIND    PRES   REMARKS
LA GRANDE       CLEAR       59  34  39  NW13    29.99R
#COVE           N/A         53  39  59  N3      30.03R
#COVE SCHOOL    N/A         52  37  56  CALM    30.02R
#COVE 6NW       N/A         48  39  71  CALM    29.91R
#ELGIN 3N       N/A         50  39  66  CALM    29.97R
#ELGIN 1E       N/A         51  39  63  CALM    N/A
#IMBLER SCHOOL  N/A         53  39  59  CALM    29.96R
#ISLAND CITY 4N N/A         49  47  93  CALM    30.10R
#LA GRANDE-LEFFEN/A         58  39  49  W5      30.00R
$$

ORZ050-291010-
WALLOWA COUNTY

CITY            SKY/WX      TMP DP  RH  WIND    PRES   REMARKS
JOSEPH AIRPORT  PTCLDY      46  34  63  W6      30.05R
#ENTERPRISE HS  N/A         45  38  76  CALM    29.80R
#IMNAHA SCHOOL  N/A         59  38  45  SE2     29.97R
#IMNAHA 10S     N/A         54  37  52  SW5     29.99R
#JOSEPH         N/A         47  38  71  CALM    30.00R
#JOSEPH 3N      N/A         41  32  70  CALM    30.06R
#JOSEPH 3W      N/A         49  39  68  SW2     29.89R
#LOSTINE        N/A         44  37  76  S1      29.72R
#LOSTINE 3SE    N/A         44  36  73  CALM    30.06R
#MT HOWARD 8000 N/A         43  30  60  W2      30.17R
#PROMISE 1S     N/A         56  41  57  CALM    29.97R
#WALLOWA LAKE   N/A         50  35  56  S1      30.05R
#WALLOWA SCHOOL N/A         46  39  76  CALM    29.97R



$$



USA.gov is the U.S. government's official web portal to all federal, state and local government web resources and services.